CZ-6A DEB, 54500

Orbit data source: Space-Track

CZ-6A DEB, 54500 is space debris in SSO originally from a launch on Fri, 11 Nov 2022 UTC launched from the Taiyaun Space Center, China (TSC). Debris objects in space refer to the collection of defunct objects orbiting the Earth. Examples of debris include non-operational satellites, rocket bodies, and fragments generated from explosions, collisions, or faulty payload assembly.

Loading next visibility...
Identifier
54500, 2022-151JC
Orbit
SSO
Country
Flag of CNCN / PRC
Related business
Manufacturer
SAST
Mission
Spacecraft
Bus & Motor
Unknown
Mass
Unknown
Launch date (UTC)
2022-11-11 (4 years ago)
Launch vehicle
Unknown
Launch site
Taiyaun Space Center, China (TSC)
Object type
Payload
Rocket body
Debris
Shape & HBR
Unknown shape, 1.1 m
Radar Cross Section
Medium (>0.1 m² and <1 m²)

Expand to show TLE details & history
Last TLE update: 19 hours ago

TLE from 19 hours ago
0 CZ-6A DEB
1 54500U 22151JC  26193.58990624  .00001350  00000-0  51247-3 0  9990
2 54500  98.8774 239.7586 0111337  94.2819 267.1094 14.29351089190212
Epoch: 2026-07-12T14:09Z
TLE epoch observation values (Epoch: 2026-07-12T14:09:27.899Z)
Latitude
0.00001°
Longitude
96.90576°
Altitude
801.737 km
Speed
7.45 km/s
True Right ascension
15h 59m 02s
True Declination
0° 00' 00"
Sunlit
Object was in full shadow at epoch
Visualization orbit readout
Latitude
Unknown
Longitude
Unknown
Altitude
Unknown
Speed
Unknown
Apparent Right ascension
Unknown
Apparent Declination
Unknown
Sunlit
N/A
Visualization observer readout
Local Sidereal Time
22:00:23
Azimuth
Unknown
Elevation
Unknown
Doppler factor
Unknown
Orbital elements
Apogee altitude
870.874 km
Perigee altitude
711.235 km
Semi-major axis
7,169.191 km
Eccentricity
0.01113
Inclination
98.8774°
RAAN
239.7586°
Arg. of periapsis
94.2819°
True anomaly
265.83619°
Mean anomaly
267.1094°
Eccentric anomaly
266.47269°
Mean motion
3.57551 °/min
Orbital period
100.68 mins
BSTAR
0.00051247
Loading maneuver chart data...
Computing Atmospheric mass density...
Loading historical data...
Loading historical data...
Loading historical data...
Loading historical data...
Loading historical data...
Loading historical data...
Loading historical data...

Documentation

Showing up to 5 results
|